PulseSat

PulseSat

MOLNIYA 1-88

Last updated on Feb. 16, 2019, 3:05 a.m. UTC

1 23420U 94081A   19046.53667018  .00000120  00000-0  29223-2 0  9992
2 23420  63.6288 124.8648 6050135 298.6205  14.0734  3.34493975206207
UTC
Height (km)
Latitude
Longitude
Inclination
Orbital Period

Next 30 passes for location: Hong Kong

Rise time Rise Azimuth (degrees) Set time Set Azimuth (degrees) Duration Max altitude (degrees)

No matching passes for this satellites

PulseSat

PulseSat is the new satellites software and hardware trackering solution by Pulsely.
Satellite Two Line Element Set source: US Air Force Space Command

Download PulseSat for iOS
© 2017 Pulsely Limited